Vertical_Velocity
8 -13 -27 24 6 3 4 -3 -4 0 18 -9 11 -14 9 3 -19 0 0 0 1 -1 -4 -3 4 2 -5 3 -3 -1 0 4 -2 4 1 -1 -3 -1 1 1 2 -1 2 1
-5 -43 43 -3 -5 -2 -0 -2 -14 5 25 -7 29 -34 1 -2 -5 -1 1 3 1 1 -3 0 2 3 1 2 3 5 3 7 4 -0 1 1 1 -2 -1 1 1 2 1 1
-13 9 5 -3 1 3 8 -6 5 3 20 -8 5 -65 19 1 -12 -9 3 4 4 4 1 -1 0 8 6 4 1 -0 1 3 6 3 -4 1 1 2 1 1 1 1 1 1
-17 7 0 1 -1 12 -6 18 -7 3 -6 -8 18 -80 -21 21 -8 -11 1 -1 5 9 5 -1 -6 -0 -1 10 -0 -6 3 0 3 1 2 -3 2 -0 4 1 1 -0 3 1
11 4 4 3 4 2 -12 3 -3 7 2 3 -14 -16 5 9 -13 10 6 -2 -3 2 3 2 6 -9 -9 1 6 2 -4 -3 0 2 3 1 -0 3 -1 -0 4 1 -0 0
-1 -4 0 -0 3 5 -3 -0 6 14 20 -5 27 2 -105 4 3 7 12 13 9 0 -1 4 7 4 -5 1 5 -2 3 3 -1 1 2 4 2 -1 1 0 -0 -2 -0 1
-7 -3 -4 1 -3 5 -5 5 -10 -20 -10 -59 55 40 -149 10 20 12 16 9 15 13 8 -1 7 7 -8 -4 2 1 -5 -2 -3 -4 -3 6 5 1 2 1 2 1 3 0
-8 -1 1 -0 -3 6 -6 -5 -2 -3 0 -35 35 -52 -173 47 3 -12 -8 -4 -0 9 18 1 10 6 -3 -4 -1 0 -1 2 -5 -3 2 5 0 4 -5 -1 8 6 -0 3
-1 1 -6 -3 -6 -6 2 3 16 -25 -0 -6 6 -25 -53 34 17 7 7 1 3 -1 -2 -7 0 -3 -7 -11 -4 -5 4 11 0 -3 -5 -4 2 3 -1 -9 4 9 -1 2
-5 -5 -2 2 10 4 -4 13 12 8 -7 1 -28 -7 -95 34 18 -6 -11 2 11 8 6 1 -4 -4 -4 -6 -9 -16 3 -1 9 5 -0 2 5 0 2 -6 -2 -1 1 2
0 -10 3 7 2 6 1 3 1 4 -7 -3 -21 -29 -2 -6 1 4 2 -0 1 -1 3 -0 2 1 2 5 1 -5 -3 6 0 11 8 7 3 6 -0 -2 -4 3 7 2
-10 -5 -6 3 11 6 2 5 -4 -4 3 -10 -17 -74 21 -3 -7 -4 4 3 3 -1 4 9 3 0 -0 6 0 -3 1 1 8 6 -1 5 1 7 -3 -3 -1 -6 -4 4
-9 -20 -10 8 1 6 -1 -1 1 1 1 -8 8 -83 2 2 -9 5 -7 2 6 1 3 -3 1 3 3 1 2 -1 1 3 -2 5 6 0 -0 7 5 -4 3 0 9 1
-14 -0 -9 -2 -3 -1 2 3 4 -1 -9 21 -31 -15 -24 11 -5 6 6 3 -5 -4 1 -2 2 -0 9 -1 -7 -0 4 2 1 2 1 2 8 1 6 -2 1 2 0 4
-18 -7 -1 -0 -7 -6 -3 5 23 -6 12 -14 9 -22 -30 3 7 8 4 -0 -4 -8 1 6 -1 6 16 -7 -1 -3 -1 4 -2 -3 4 3 -2 -1 4 6 0 2 -1 7
-11 -6 -11 -3 2 -2 -26 5 1 4 22 -2 13 -49 39 -7 -11 11 5 -6 -3 -7 4 1 -1 3 -1 7 6 -1 3 -3 4 -6 1 5 1 -0 -0 0 0 -0 -0 4
-0 -1 -1 -41 2 -0 -59 46 -5 2 13 18 -6 -24 7 -11 -10 2 -3 -7 -2 1 -4 2 2 -3 8 -2 -6 13 -1 0 0 -14 -6 -3 3 8 7 3 2 9 2 0
6 3 -0 -39 9 -38 17 8 6 12 11 9 -19 -3 1 -6 9 -13 4 -5 -5 -10 -2 0 2 -3 5 -3 1 15 15 8 0 -6 4 -8 4 11 -1 -0 3 -1 1 1
-0 5 -7 -19 12 -20 -35 33 17 8 -10 -5 -9 -11 -7 0 -17 -19 2 -0 -5 -5 -3 1 -6 -7 0 4 5 -9 7 30 4 2 2 8 11 3 1 -1 1 3 4 -3
6 -1 -11 6 -2 -44 6 31 34 16 -45 10 14 -22 -11 7 -29 -25 21 -10 -8 -4 -2 3 -1 -5 -0 11 7 -5 16 -8 -13 -10 4 14 3 4 6 2 -1 3 3 0
5 6 -9 7 -9 -56 28 22 17 -2 -10 -20 10 -3 -8 -10 1 -36 8 -3 -4 -5 -3 -2 -10 -1 -9 -3 -8 -8 -2 -19 22 13 7 9 11 4 -0 7 8 8 2 -2
-4 -4 4 -1 1 -71 56 -13 12 19 -12 -1 4 2 -7 0 -8 -7 -3 -3 5 -1 -2 5 -8 7 7 -8 -10 -14 -26 27 9 13 -4 4 0 -3 2 5 1 0 -1 -1
-31 12 3 1 -40 8 24 -2 7 -5 -13 5 -4 9 3 -12 -0 -3 -7 7 0 -3 -2 3 -0 2 9 6 -5 -23 -0 7 11 6 7 -0 -2 -10 3 2 2 -0 -6 -2
-5 26 -19 26 12 -12 10 6 -14 9 -15 -15 -1 -7 8 -13 -3 -14 -0 -0 -2 4 -4 -1 -5 1 3 -1 2 -2 -11 -4 9 -1 -4 -2 -5 -2 3 4 1 1 -2 3
29 4 11 0 -10 19 -10 -6 -3 -0 8 -14 -6 -5 -6 -3 -15 -4 -10 4 -1 1 3 -6 2 2 7 2 -3 -9 -9 3 1 5 1 -2 0 -2 -2 2 2 -1 -1 7
83 15 1 -28 6 8 -34 6 9 -7 5 19 -6 -16 7 -4 -6 2 -9 5 1 3 7 -5 6 -6 3 8 -5 -3 -4 -8 -3 -5 -5 1 1 -1 1 1 0 4 6 7
Height
5775 5779 5785 5795 5796 5793 5795 5797 5799 5806 5809 5809 5812 5812 5817 5824 5827 5826 5827 5830 5830 5832 5834 5837 5837 5838 5839 5842 5845 5843 5840 5838 5837 5835 5832 5831 5828 5826 5823 5822 5821 5820 5820 5820
5762 5768 5784 5783 5782 5782 5783 5785 5790 5797 5797 5795 5799 5799 5807 5811 5817 5821 5821 5822 5824 5825 5827 5828 5831 5831 5829 5831 5834 5834 5834 5831 5830 5830 5826 5825 5822 5822 5819 5816 5814 5813 5812 5812
5752 5762 5766 5768 5769 5769 5772 5774 5781 5781 5782 5783 5778 5785 5794 5802 5804 5810 5812 5812 5814 5816 5818 5821 5822 5825 5823 5822 5825 5823 5823 5825 5823 5823 5821 5818 5815 5814 5812 5810 5808 5806 5805 5804
5744 5748 5751 5754 5757 5759 5758 5767 5766 5766 5765 5769 5769 5766 5783 5790 5791 5796 5801 5803 5806 5808 5808 5812 5815 5817 5819 5815 5812 5814 5813 5814 5815 5814 5813 5811 5808 5806 5806 5803 5801 5799 5798 5797
5737 5739 5742 5744 5747 5742 5747 5749 5753 5755 5753 5752 5761 5752 5766 5779 5783 5790 5792 5796 5798 5799 5800 5800 5805 5807 5809 5805 5804 5805 5804 5806 5806 5804 5805 5804 5800 5799 5797 5796 5794 5791 5790 5788
5723 5726 5730 5735 5734 5732 5736 5738 5739 5740 5734 5732 5755 5742 5757 5768 5777 5781 5784 5785 5785 5786 5788 5788 5789 5792 5796 5795 5793 5792 5793 5793 5793 5795 5794 5795 5793 5790 5788 5786 5784 5781 5781 5779
5709 5716 5719 5720 5723 5722 5722 5725 5721 5722 5716 5722 5742 5726 5745 5757 5762 5764 5766 5769 5771 5773 5773 5774 5777 5778 5781 5783 5782 5781 5782 5783 5784 5784 5784 5785 5784 5780 5779 5777 5775 5773 5772 5771
5702 5708 5710 5707 5708 5708 5708 5710 5708 5703 5705 5715 5716 5705 5734 5750 5744 5744 5748 5750 5754 5757 5761 5761 5763 5765 5766 5768 5768 5769 5771 5773 5774 5775 5775 5774 5774 5772 5771 5767 5764 5764 5761 5761
5693 5697 5697 5698 5696 5697 5697 5700 5699 5690 5695 5691 5700 5702 5719 5734 5732 5732 5732 5733 5736 5736 5738 5741 5743 5746 5748 5751 5754 5755 5757 5762 5762 5765 5764 5762 5763 5762 5760 5758 5755 5753 5752 5750
5684 5689 5689 5690 5690 5688 5687 5688 5687 5682 5680 5679 5685 5688 5702 5721 5716 5715 5713 5717 5720 5722 5721 5725 5729 5731 5734 5737 5739 5740 5743 5748 5751 5752 5752 5752 5752 5751 5749 5748 5746 5744 5742 5740
5675 5679 5682 5682 5680 5679 5677 5674 5673 5672 5673 5668 5672 5677 5697 5701 5700 5698 5698 5699 5701 5704 5708 5710 5716 5719 5717 5717 5719 5722 5726 5733 5737 5740 5742 5741 5740 5740 5736 5738 5737 5735 5733 5730
5664 5667 5668 5671 5670 5670 5666 5668 5664 5659 5661 5659 5661 5665 5688 5683 5683 5680 5680 5680 5682 5686 5691 5695 5700 5702 5703 5703 5704 5705 5710 5716 5723 5728 5728 5728 5727 5729 5724 5725 5725 5724 5723 5721
5654 5654 5656 5658 5657 5656 5656 5656 5653 5650 5648 5652 5642 5658 5670 5668 5670 5669 5665 5665 5663 5665 5671 5677 5682 5687 5689 5691 5693 5695 5698 5703 5707 5713 5716 5715 5715 5716 5712 5711 5712 5713 5710 5710
5642 5644 5643 5643 5642 5643 5644 5643 5642 5638 5637 5635 5635 5636 5656 5660 5655 5654 5649 5645 5644 5647 5654 5660 5664 5667 5671 5675 5680 5682 5686 5690 5694 5697 5700 5702 5702 5701 5697 5697 5701 5701 5699 5698
5630 5632 5632 5630 5629 5627 5628 5630 5631 5628 5625 5615 5629 5619 5637 5642 5639 5637 5633 5629 5630 5633 5638 5642 5647 5650 5654 5655 5662 5664 5669 5674 5676 5678 5683 5686 5686 5683 5684 5686 5688 5688 5689 5687
5619 5618 5616 5621 5618 5614 5612 5620 5613 5613 5615 5609 5609 5607 5623 5618 5622 5621 5617 5614 5614 5617 5621 5627 5632 5633 5637 5642 5647 5648 5653 5653 5656 5663 5664 5668 5666 5669 5673 5676 5677 5676 5676 5674
5607 5604 5602 5606 5606 5599 5597 5607 5602 5600 5599 5593 5590 5595 5605 5599 5602 5605 5596 5600 5601 5600 5605 5610 5615 5618 5622 5626 5630 5637 5637 5642 5644 5648 5652 5653 5655 5658 5660 5662 5663 5663 5663 5661
5596 5592 5588 5589 5590 5581 5594 5596 5589 5586 5585 5578 5574 5577 5579 5583 5583 5584 5583 5584 5585 5586 5586 5592 5593 5601 5604 5611 5614 5616 5623 5626 5630 5637 5640 5642 5642 5645 5647 5650 5651 5651 5650 5648
5581 5578 5574 5572 5572 5571 5583 5588 5577 5567 5565 5566 5567 5565 5563 5562 5562 5568 5571 5568 5570 5572 5573 5572 5575 5583 5590 5596 5595 5595 5602 5607 5612 5620 5625 5629 5629 5630 5633 5634 5636 5636 5636 5634
5571 5567 5563 5562 5557 5556 5574 5577 5562 5555 5550 5567 5556 5552 5553 5550 5545 5557 5554 5552 5555 5557 5558 5557 5559 5566 5572 5577 5578 5579 5587 5591 5600 5603 5608 5611 5611 5614 5617 5619 5620 5621 5619 5619
5560 5558 5553 5551 5545 5543 5556 5561 5548 5541 5552 5549 5547 5542 5539 5536 5535 5538 5537 5537 5539 5540 5541 5542 5545 5550 5553 5557 5560 5565 5571 5577 5585 5585 5587 5593 5598 5600 5602 5604 5605 5605 5606 5607
5546 5544 5542 5541 5537 5531 5545 5544 5537 5538 5535 5536 5534 5530 5527 5525 5523 5524 5523 5521 5523 5525 5526 5528 5529 5536 5538 5539 5542 5548 5556 5564 5564 5569 5575 5580 5584 5587 5590 5592 5592 5592 5593 5593
5535 5537 5533 5528 5527 5530 5530 5529 5527 5523 5519 5524 5521 5520 5515 5515 5514 5513 5513 5511 5508 5508 5511 5512 5513 5519 5524 5525 5528 5534 5542 5549 5555 5558 5561 5565 5569 5573 5575 5577 5579 5580 5581 5581
5528 5526 5519 5517 5522 5519 5516 5512 5513 5512 5507 5510 5509 5507 5504 5503 5502 5501 5499 5497 5496 5495 5497 5499 5499 5504 5508 5510 5513 5518 5528 5535 5539 5542 5547 5551 5555 5558 5561 5564 5565 5567 5568 5567
5521 5514 5511 5505 5508 5503 5501 5501 5501 5500 5497 5495 5496 5495 5492 5489 5491 5487 5487 5485 5481 5482 5484 5484 5486 5490 5494 5494 5495 5503 5511 5520 5525 5528 5532 5535 5539 5543 5545 5547 5551 5553 5552 5553
5512 5503 5495 5491 5495 5484 5485 5494 5488 5483 5484 5481 5478 5480 5479 5475 5475 5474 5474 5471 5467 5468 5470 5473 5474 5477 5481 5483 5485 5490 5496 5502 5507 5512 5516 5520 5524 5527 5530 5533 5534 5535 5537 5538